TIME,DELAY(SENSOR),PRES,OXYGEN,RAWTEMP,T(OPTODE),TCPHASE,FLUOR,BETA(BETA700),BETA(BETA412),BETA(BETA440),CDOM,C(CSC),ED(ED412.20),ED(ED444.00),ED(ED489.60),ED(ED554.30),LU(LU412.10),LU(LU443.90),LU(LU489.70),LU(LU554.70),COMP,TILTX,TILTY,CHECK
1371183819,5808,867.4699707031250000,29.8549709320068360,560.2354125976562000,4.4786000251770020,57.1210899353027340,55,101,99,78,81,15611,0,0,0,0,2147121179,2147773961,2147569581,2147568438,1807,2,13,24787
1371187415,5813,930.5700073242188000,35.3332710266113300,568.6370239257812000,4.2179107666015625,56.3168601989746100,55,100,100,78,81,15612,0,0,0,0,2147121590,2147766747,2147571465,2147569481,1962,2,13,59351
1371191015,5811,951.2999877929688000,34.2617607116699200,570.6629028320312000,4.1549592018127440,56.5030593872070300,54,98,100,77,80,15611,0,0,0,0,2147125129,2147771757,2147570541,2147567826,3189,3,13,17146
1371194615,5807,976.7800292968750000,35.7927017211914060,573.2728881835938000,4.0738067626953125,56.2890510559082000,55,99,99,77,80,15609,0,0,0,0,2147122313,2147768064,2147575424,2147568886,198,2,13,54291
1371198215,5811,980.7199707031250000,36.9031486511230500,574.3790283203125000,4.0394001007080080,56.1321601867675800,55,98,98,78,81,15610,0,0,0,0,2147120585,2147773961,2147570230,2147567469,45,3,13,41887
1371201815,5811,985.5900268554688000,37.7617797851562500,574.7556762695312000,4.0276780128479000,56.0056495666503900,55,97,100,77,80,15610,0,0,0,0,2147117970,2147770203,2147569307,2147565924,3275,3,13,295
1371205415,5814,985.8900146484375000,34.8781509399414060,574.7949218750000000,4.0264611244201660,56.4523811340332000,56,97,99,77,79,15608,0,0,0,0,2147124077,2147771949,2147570020,2147568914,6,2,13,26077
1371209015,5811,985.3599853515625000,34.8483085632324200,574.5833740234375000,4.0330390930175780,56.4502601623535160,55,97,100,79,80,15608,0,0,0,0,2147120292,2147771172,2147569024,2147566226,23,3,13,57084
1371212615,5810,989.3599853515625000,36.7713508605957000,574.7619018554688000,4.0274868011474610,56.1557083129882800,56,96,99,77,82,15611,0,0,0,0,2147120777,2147767085,2147574454,2147569554,92,2,13,16856
1371216215,5812,986.8599853515625000,35.1335411071777340,575.5219116210938000,4.0038361549377440,56.4191894531250000,55,98,98,77,80,15610,0,0,0,0,2147121792,2147775634,2147567689,2147565558,68,2,13,59208
1371219815,5810,988.8699951171875000,34.5550689697265600,574.8986816406250000,4.0232281684875490,56.5010604858398440,56,96,99,78,80,15608,0,0,0,0,2147121115,2147772352,2147570514,2147565686,3441,2,13,48847
1371223415,5809,995.7899780273438000,36.1420211791992200,574.2490234375000000,4.0434460639953610,56.2489204406738300,55,97,100,78,81,15608,0,0,0,0,2147124452,2147767341,2147570724,2147568356,188,2,13,7884
1371227015,5809,988.6300048828125000,35.4998092651367200,574.0283203125000000,4.0503120422363280,56.3462104797363300,55,97,100,77,81,15610,0,0,0,0,2147123666,2147769563,2147571474,2147568585,328,2,13,11388
1371230615,5809,990.4299926757812000,34.3469696044921900,573.9672241210938000,4.0522122383117680,56.5249290466308600,54,98,100,77,80,15607,0,0,0,0,2147121225,2147767954,2147572397,2147567488,69,2,13,4387
1371234215,5808,988.4899902343750000,33.6148300170898440,574.9666748046875000,4.0211138725280760,56.6527709960937500,55,97,98,78,79,15607,0,0,0,0,2147121526,2147770688,2147571648,2147566729,3514,2,13,63109
1371237815,5810,990.2199707031250000,27.1506690979003900,574.9663085937500000,4.0211257934570310,57.7209510803222660,55,97,98,78,79,15605,0,0,0,0,2147123245,2147771748,2147573869,2147569636,3577,2,13,4914
1371241415,5809,994.9799804687500000,32.0558395385742200,574.8709106445312000,4.0240941047668460,56.8959007263183600,54,98,100,77,80,15606,0,0,0,0,2147124626,2147770624,2147572132,2147569225,130,2,13,4081
1371245015,5809,989.0900268554688000,32.0509414672851560,575.2454833984375000,4.0124378204345700,56.9060096740722660,54,98,98,79,81,15607,0,0,0,0,2147122706,2147766793,2147574610,2147565641,3582,2,13,6747
1371248615,5811,998.6099853515625000,32.6130981445312500,574.6248168945312000,4.0317540168762210,56.8095207214355500,54,97,99,77,80,15607,0,0,0,0,2147124150,2147768722,2147573522,2147568585,902,2,13,8547
1371252215,5810,997.1699829101562000,34.4562416076660160,574.4349975585938000,4.0376567840576170,56.5107307434082000,54,99,100,77,81,15607,0,0,0,0,2147122880,2147766144,2147569170,2147568274,64,3,13,13964
1371255815,5808,987.9400024414062000,35.0735816955566400,574.4691162109375000,4.0365958213806150,56.4138793945312500,55,98,99,77,82,15605,0,0,0,0,2147121956,2147772507,2147574345,2147565842,298,2,13,57739
1371259415,5809,998.0200195312500000,33.8106307983398440,575.2260742187500000,4.0130410194396970,56.6194305419921900,54,99,100,77,82,15606,0,0,0,0,2147124333,2147773632,2147571702,2147569572,8,2,13,4544
1371263015,5807,1001.5800170898438000,32.9879417419433600,574.9948730468750000,4.0202350616455080,56.7543106079101560,55,99,100,78,80,15606,0,0,0,0,2147123392,2147769874,2147570779,2147568374,515,2,13,26278
1371266615,5809,995.5399780273438000,35.4948501586914060,574.3859252929688000,4.0391860008239750,56.3508682250976560,55,101,98,78,80,15606,0,0,0,0,2147120448,2147769755,2147571008,2147568356,120,2,13,6701
1371270215,5809,1002.0999755859375000,34.1391487121582000,574.7656860351562000,4.0273671150207520,56.5628509521484400,54,99,99,77,82,15603,0,0,0,0,2147124699,2147770404,2147574528,2147568402,3531,2,13,20087
1371273815,5809,996.2899780273438000,36.9780807495117200,575.5034790039062000,4.0044078826904300,56.1325302124023440,56,96,98,78,80,15605,0,0,0,0,2147119606,2147769179,2147572224,2147569929,308,2,13,36598
1371277415,5809,997.0599975585938000,32.8197212219238300,575.2728271484375000,4.0115871429443360,56.7862281799316400,55,104,99,78,82,15601,0,0,0,0,2147120841,2147767798,2147571072,2147568457,115,2,13,26194
1371281015,5810,996.7399902343750000,36.5389099121093750,575.4243774414062000,4.0068697929382320,56.2008399963378900,55,97,100,78,81,15604,0,0,0,0,2147121773,2147773961,2147575853,2147567387,691,2,13,55482
1371284615,5809,1003.5300292968750000,37.5336608886718750,574.9464721679688000,4.0217399597167970,56.0421791076660160,56,98,99,77,81,15602,0,0,0,0,2147122422,2147769691,2147575826,2147566729,3088,2,13,15311
1371288215,5809,995.4500122070312000,35.6435394287109400,574.6129760742188000,4.0321178436279300,56.3254508972168000,55,99,99,77,81,15600,0,0,0,0,2147124342,2147775753,2147568585,2147566848,639,2,13,35673
1371291815,5809,997.1300048828125000,37.2893981933593750,574.8848266601562000,4.0236630439758300,56.0789604187011700,54,99,100,77,81,15603,0,0,0,0,2147120768,2147772498,2147572745,2147567488,3077,2,13,31025
1371295415,5809,996.0800170898438000,36.5408096313476560,574.9675292968750000,4.0210900306701660,56.1972389221191400,54,97,101,78,81,15602,0,0,0,0,2147125842,2147770066,2147569142,2147569563,3583,2,13,52802
1371299015,5809,990.2299804687500000,34.8694915771484400,575.6019287109375000,4.0013451576232910,56.4587593078613300,56,96,100,77,80,15603,0,0,0,0,2147122358,2147769270,2147567296,2147567414,2890,2,13,62084
1371302615,5810,992.4600219726562000,38.1764488220214840,576.5543823242188000,3.9716970920562744,55.9609107971191400,54,96,99,78,80,15601,0,0,0,0,2147125796,2147768630,2147570697,2147565942,211,2,13,22364
1371306215,5808,997.3599853515625000,33.6950912475585940,575.8654174804688000,3.9931430816650390,56.6434783935546900,54,95,99,77,81,15602,0,0,0,0,2147119899,2147767186,2147567469,2147567707,148,2,13,6006
1371309815,5808,995.9299926757812000,33.4744415283203100,575.5612792968750000,4.0026087760925290,56.6798591613769500,55,97,99,78,81,15603,0,0,0,0,2147121956,2147767597,2147570834,2147567570,356,2,13,39618
1371313415,5809,992.2199707031250000,31.7354507446289060,575.9218139648438000,3.9913899898529053,56.9612197875976560,54,97,99,77,80,15602,0,0,0,0,2147121892,2147769572,2147571053,2147569481,3322,2,13,59624
1371317015,5811,997.5999755859375000,34.4771118164062500,575.5510864257812000,4.0029258728027340,56.5229415893554700,55,96,100,78,82,15602,0,0,0,0,2147123876,2147770057,2147574592,2147569536,215,2,13,54074
1371320615,5807,1000.6599731445312000,33.2328300476074200,575.4868774414062000,4.0049228668212890,56.7150115966796900,54,97,99,78,80,15602,0,0,0,0,2147121408,2147770870,2147573147,2147566043,147,2,13,2345
1371324215,5812,1006.1199951171875000,37.1050910949707000,574.4970703125000000,4.0357270240783690,56.0998191833496100,56,96,100,77,80,15599,0,0,0,0,2147121792,2147773494,2147570057,2147566363,3376,2,13,20285
1371327355,5811,1001.9299926757812000,36.3722114562988300,575.3394775390625000,4.0095100402832030,56.2192192077636700,55,97,99,77,81,15600,0,0,0,0,2147122422,2147772891,2147569920,2147567241,3525,2,13,47305
